[Iaude] MPEC P66: 2018 PU10 [a=2.07,e=0.44,i=3.0,H=21.9]

mpec at mpcdb1.cfa.harvard.edu mpec at mpcdb1.cfa.harvard.edu
Sat Aug 11 18:47:16 EDT 2018


M.P.E.C. 2018-P66                                Issued 2018 Aug. 11, 22:43 UT
 
     The Minor Planet Electronic Circulars contain information on unusual
         minor planets and routine data on comets.  They are published
    on behalf of Division F of the International Astronomical Union by the
          Minor Planet Center, Smithsonian Astrophysical Observatory,
                          Cambridge, MA 02138, U.S.A.

             Prepared using the Tamkin Foundation Computer Network

                              MPC at CFA.HARVARD.EDU
            URL https://www.minorplanetcenter.net/    ISSN 1523-6714


                                   2018 PU10
 
Observations:
     K18P10U* C2018 08 08.58998 01 35 33.914-00 20 00.61         21.2 wUEP066F51
     K18P10U  C2018 08 08.59714 01 35 35.453-00 19 54.88         21.3 wUEP066F51
     K18P10U  C2018 08 08.60427 01 35 37.003-00 19 48.79         21.2 wUEP066F51
     K18P10U  C2018 08 08.61142 01 35 38.532-00 19 43.13         21.4 wUEP066F51
     K18P10U KC2018 08 09.16480001 37 44.890-00 12 18.43         21.7 GVEP066J04
     K18P10U KC2018 08 09.17219201 37 46.494-00 12 12.28         21.3 GVEP066J04
     K18P10U KC2018 08 09.17958501 37 48.110-00 12 06.49         21.4 GVEP066J04
     K18P10U KC2018 08 10.09880301 41 13.97 -00 00 00.8          21.2 GVEP066L01
     K18P10U KC2018 08 10.10401901 41 15.09 +00 00 02.5          21.1 GVEP066L01
     K18P10U KC2018 08 10.11006001 41 17.327+00 00 14.57         20.9 GVEP066J04
     K18P10U KC2018 08 10.12188701 41 19.828+00 00 24.06         21.1 GVEP066J04
     K18P10U KC2018 08 10.13371301 41 22.353+00 00 33.29         21.1 GVEP066J04
     K18P10U  C2018 08 11.59552 01 46 41.801+00 19 27.36         21.6 wUEP066F51
     K18P10U  C2018 08 11.60345 01 46 43.399+00 19 33.58         21.9 wUEP066F51
     K18P10U  C2018 08 11.61141 01 46 45.024+00 19 39.59         22.0 wUEP066F51
     K18P10U  C2018 08 11.61937 01 46 46.656+00 19 45.60         21.7 wUEP066F51
 
Observer details:
F51 Pan-STARRS 1, Haleakala.  Observers J. Bulger, T. Lowe, A. Schultz,
    M. Willman.  Measurers K. Chambers, S. Chastel, L. Denneau, H. Flewelling,
    M. Huber, E. Magnier, Y. Ramanjooloo, R. Wainscoat, C. Waters, R. Weryk.
    1.8-m Ritchey-Chretien + CCD.
J04 ESA Optical Ground Station, Tenerife.  Observer P. Ruiz.  Measurers
    M. Micheli, D. Koschny, M. Busch, E. Schwab, A. Knoefel.  1.0-m f/4.4
    reflector + CCD.
L01 Visnjan Observatory, Tican.  Observers K. Korlevic, D. Ivanic, M. Rakitic,
    L. Gelo, J. Minic, F. Hrzenjak, E. Pettarin.  Measurer D. Ivanic.  1.0-m
    f/2.9 reflector + CCD.
 
Orbital elements:
2018 PU10                                                Earth MOID = 0.1474 AU
Epoch 2018 Mar. 23.0 TT = JDT 2458200.5                 MPC
M 313.18969              (2000.0)            P               Q
n   0.33026240     Peri.  231.85442     +0.87660995     +0.47833374
a   2.0728281      Node    99.51267     -0.42318339     +0.81821685
e   0.4440374      Incl.    3.04896     -0.22906509     +0.31893262
P   2.98           H   21.9           G   0.15           U   9
Residuals in seconds of arc
180808 F51  0.4-  0.2-    180809 J04  0.2-  0.4-    180811 F51  0.4-  0.3-
180808 F51  0.5-  0.3-    180810 L01  0.5-  0.5+    180811 F51  0.6-  0.1-
180808 F51  0.4-  0.0     180810 L01  0.4-  0.3-    180811 F51  0.5-  0.1-
180808 F51  0.6-  0.2-    180810 J04  0.2-  0.4-    180811 F51  0.4-  0.1-
180809 J04  0.8-  0.4-    180810 J04  0.6-  0.3-
180809 J04  0.6-  0.2-    180810 J04  0.5-  0.3-

Ephemeris:
2018 PU10                a,e,i = 2.07, 0.44, 3                   q = 1.1524
Date    TT    R. A. (2000) Decl.     Delta      r     Elong.  Phase     V
2018 07 12    23 34 13.3 -07 47 27   0.3138  1.1976   118.3    48.4    21.6
...
2018 07 27    00 43 08.2 -03 32 11   0.2847  1.1646   114.9    52.3    21.4
...
2018 08 04    01 17 25.2 -01 25 24   0.2789  1.1554   113.7    53.5    21.4
...
2018 08 10    01 40 51.4 -00 00 58   0.2779  1.1526   113.4    53.8    21.4
2018 08 11    01 44 32.0 +00 12 03   0.2780  1.1524   113.4    53.8    21.4
2018 08 12    01 48 08.4 +00 24 43   0.2781  1.1524   113.4    53.8    21.4
...
2018 08 18    02 08 14.5 +01 33 57   0.2798  1.1543   113.9    53.3    21.4
...
2018 08 26    02 30 44.8 +02 48 17   0.2843  1.1624   115.7    51.6    21.4
...
2018 09 10    02 58 53.7 +04 17 55   0.2967  1.1934   122.6    45.3    21.4

A. U. Tomatic                (C) Copyright 2018 MPC           M.P.E.C. 2018-P66



More information about the Iaude mailing list